Flag for Russia Weather past 2 weeks in Sochi, Russia

Now
82 °F

Sunny.


Feels Like: 87 °F
Forecast: 72 / 93 °F
Wind: 6 mph from Northwest

Location: Adler

Current Time: Aug 27, 2014 at 9:10:21 PM

Latest Report: Aug 27, 2014 at 8:30 PM


Visibility: N/A

Pressure: 29.74 "Hg

Humidity: 70%

Dew point: 72 °F

Location of SochiLocation

Historic Weather in Sochi — Graph

°F

Sochi temperature yesterday

Maximum temperature yesterday: 86 °F (at 3:00 PM)
Minimum temperature yesterday: 75 °F (at 1:30 AM)
Average temperature yesterday: 80 °F

Past Weeks' High & Low Weather Summary

 TemperatureHumidityPressure
High91 °F (Aug 15, 12:30 PM)94% (Aug 19, 9:00 AM)30.01 "Hg (Aug 19, 9:00 AM)
Low70 °F (Aug 19, 9:00 AM)41% (Aug 15, 12:30 PM)29.56 "Hg (Aug 17, 8:30 PM)
Average79 °F72%29.85 "Hg
* Reported Aug 12 7:00 PM — Aug 27 7:00 PM, Sochi, Weather by CustomWeather, © 2014

Note: Actual official high and low records may vary slightly from our data, if they occured in-between our weather recording intervals... More about our weather records

Advertising

Sochi weather history for previous 24 hours

 ConditionsComfort  
Time TempWeatherWind HumidityBarometerVisibility
7:00 PM
Aug 27
84 °FSunny.8 mph66%29.74 "HgN/A
6:30 PM86 °FSunny.8 mph62%29.74 "HgN/A
6:00 PM86 °FSunny.8 mph62%29.74 "HgN/A
5:30 PM86 °FSunny.10 mph62%29.77 "HgN/A
5:00 PM86 °FPassing clouds.10 mph62%29.77 "HgN/A
4:30 PM86 °FPassing clouds.10 mph59%29.77 "HgN/A
4:00 PM86 °FPassing clouds.8 mph59%29.77 "HgN/A
3:30 PM86 °FPassing clouds.8 mph62%29.80 "HgN/A
3:00 PM86 °FPassing clouds.10 mph59%29.80 "HgN/A
2:30 PM84 °FPassing clouds.10 mph62%29.80 "HgN/A
2:00 PM84 °FSunny.10 mph62%29.83 "HgN/A
1:30 PM86 °FSunny.8 mph62%29.83 "HgN/A
1:00 PM86 °FSunny.8 mph59%29.83 "HgN/A
12:30 PM84 °FSunny.8 mph62%29.83 "HgN/A
12:00 PM84 °FSunny.8 mph62%29.83 "HgN/A
11:30 AM84 °FSunny.8 mph58%29.86 "HgN/A
11:00 AM84 °FSunny.6 mph58%29.86 "HgN/A
10:30 AM82 °FSunny.6 mph62%29.86 "HgN/A
10:00 AM82 °FSunny.1 mph62%29.86 "HgN/A
9:30 AM81 °FSunny.3 mph70%29.86 "HgN/A
9:00 AM79 °FSunny.6 mph65%29.86 "HgN/A
8:30 AM77 °FSunny.6 mph69%29.86 "HgN/A
8:00 AM75 °FPassing clouds.8 mph74%29.86 "HgN/A
7:30 AM73 °FPassing clouds.8 mph83%29.86 "HgN/A
6:30 AM72 °FClear.8 mph88%29.86 "HgN/A
6:00 AM73 °FClear.6 mph83%29.86 "HgN/A
5:30 AM72 °FClear.6 mph88%29.86 "HgN/A
5:00 AM72 °FClear.6 mph88%29.86 "HgN/A
4:30 AM73 °FClear.8 mph83%29.86 "HgN/A
4:00 AM73 °FClear.6 mph83%29.86 "HgN/A
3:30 AM73 °FClear.6 mph83%29.89 "HgN/A
3:00 AM73 °FClear.8 mph83%29.89 "HgN/A
2:30 AM73 °FClear.8 mph89%29.89 "HgN/A
2:00 AM73 °FClear.3 mph89%29.89 "HgN/A
1:30 AM73 °FClear.6 mph89%29.89 "HgN/A
1:00 AM75 °FClear.6 mph83%29.92 "HgN/A
12:30 AM75 °FClear.3 mph83%29.92 "HgN/A
12:00 AM75 °FClear.6 mph83%29.92 "HgN/A
11:30 PM
Aug 26
75 °FClear.6 mph83%29.89 "HgN/A
11:00 PM75 °FClear.3 mph83%29.89 "HgN/A
10:30 PM75 °FClear.6 mph83%29.92 "HgN/A
10:00 PM77 °FClear.3 mph79%29.92 "HgN/A
9:30 PM77 °FPassing clouds.3 mph79%29.92 "HgN/A
9:00 PM81 °FPassing clouds.No wind66%29.92 "HgN/A
Weather by CustomWeather, © 2014

See weather overviewHow to use our weather pages